User: anonymous   Login
Location: Columbia
(38.9520°N, 92.3340°W)
Time: 00:23:58
(UTC-05:00)
Language:

CZ-2C R/B - Orbit

View from above orbital plane
View from above orbital plane
View from above satellite
View from above satellite

Ground track
Ground track

The orbit data is extracted from the following two-line orbital elements,

1 28480U 04046B   17117.93074883 +.00000022 +00000-0 +23743-4 0  9992
2 28480 098.1929 217.3636 0142247 013.4045 102.2300 14.25634249647057
Epoch (UTC): 27 April 2017 22:20:16
Eccentricity: 0.0142247
inclination: 98.1929°
perigee height: 704 km
apogee height: 908 km
right ascension of ascending node: 217.3636°
argument of perigee: 13.4045°
revolutions per day: 14.25634249
mean anomaly at epoch: 102.2300°
orbit number at epoch: 64705

The dashed part of the orbit path shows where the satellite is in the earth's shadow,  

DLR